User: anonymous   Login
Location: Unspecified
(0.0000°N, 0.0000°E)
Time: 05:45:00
(UTC+00:00)
Language:

STARLINK-34372 - Orbit

View from above orbital plane
View from above orbital plane
View from above satellite
View from above satellite

Ground track
Ground track

The orbit is defined by the following mean orbital elements,

1 64301U          26145.30319793 +.00000000 +00000-0 +44168-3 0 00006
2 64301  70.0016   1.3246 0002453 269.3860  90.7018 14.98342697    02
Epoch (UTC): 25 May 2026 07:16:36
Eccentricity: 0.0002453
inclination: 70.0016°
perigee height: 570 km
apogee height: 574 km
right ascension of ascending node: 1.3246°
argument of perigee: 269.3860°
revolutions per day: 14.98342697
mean anomaly at epoch: 90.7018°

The dashed part of the orbit path shows where the satellite is in the earth's shadow,  

DLR